This is the latest recevied weather packets stored in our database for station/object N8ESC. If no packets are shown the sender has not sent any weather packets the latest 1 day(s).
| Time | Temp. | Humidity | Pressure | Rain* | Wind** | Luminosity | Snow |
|---|---|---|---|---|---|---|---|
| 1778031925 | 5° C | 63% | 1008.3 hPa | 0 mm | - | 0 W/m² | - |
| 1778031621 | 5° C | 63% | 1008.3 hPa | 0 mm | - | 0 W/m² | - |
| 1778031319 | 5.56° C | 62% | 1008.2 hPa | 0 mm | - | 0 W/m² | - |
| 1778030409 | 5.56° C | 62% | 1007.9 hPa | 0 mm | - | 0 W/m² | - |
| 1778030106 | 5.56° C | 62% | 1007.9 hPa | 0 mm | - | 0 W/m² | - |
| 1778029502 | 6.11° C | 60% | 1008 hPa | 0 mm | - | 1 W/m² | - |
| 1778029197 | 6.11° C | 61% | 1007.7 hPa | 0 mm | - | 2 W/m² | - |
| 1778028895 | 6.11° C | 61% | 1007.8 hPa | 0 mm | - | 3 W/m² | - |
| 1778028590 | 6.11° C | 59% | 1007.7 hPa | 0 mm | - | 4 W/m² | - |
| 1778027984 | 7.78° C | 56% | 1007.5 hPa | 0 mm | - | 8 W/m² | - |
| 1778027681 | 7.78° C | 44% | 1007.4 hPa | 0 mm | - | 10 W/m² | - |
| 1778027377 | 8.33° C | 43% | 1007.4 hPa | 0 mm | - | 12 W/m² | - |
| 1778027073 | 8.33° C | 43% | 1007.5 hPa | 0 mm | - | 16 W/m² | - |
| 1778026769 | 8.33° C | 43% | 1007.4 hPa | 0 mm | - | 18 W/m² | - |
| 1778026466 | 8.33° C | 43% | 1007.2 hPa | 0 mm | - | 22 W/m² | - |
| 1778025861 | 8.33° C | 43% | 1007.2 hPa | 0 mm | - | 33 W/m² | - |
| 1778025256 | 8.33° C | 43% | 1007 hPa | 0 mm | - | 42 W/m² | - |
| 1778024650 | 8.89° C | 41% | 1006.8 hPa | 0 mm | - | 55 W/m² | - |
| 1778021925 | 9.44° C | 41% | 1006.4 hPa | 0 mm | - | 89 W/m² | - |
| 1778021317 | 9.44° C | 41% | 1006.4 hPa | 0 mm | - | 96 W/m² | - |
| 1778020712 | 10° C | 40% | 1006.3 hPa | 0 mm | - | 99 W/m² | - |
| 1778019801 | 10° C | 40% | 1006.2 hPa | 0 mm | - | 148 W/m² | - |
| 1778017985 | 10.56° C | 40% | 1005.7 hPa | 0 mm | - | 495 W/m² | - |
| 1778014652 | 10.56° C | 36% | 1005.2 hPa | 0 mm | - | 311 W/m² | - |
* Rain latest hour (hover to see other rain measurements)
** Current wind speed in m/s (hover to see current wind gust speed)